Old Crow,

6:28 PM PDT on July 26, 2017 (GMT -0700)
Old Crow

Weather History for CZOC - January, 2014

Change the Weather History Date:

Thursday, January 9, 2014

  Actual Average Record
Temperature  
Mean Temperature -19 °F -  
Max Temperature -7 °F - - ()
Min Temperature -38 °F - - ()
Degree Days  
Heating Degree Days 84    
Moisture  
Dew Point -25 °F    
Average Humidity 67    
Maximum Humidity 75    
Minimum Humidity 45    
Precipitation  
Precipitation 0.00 in - - ()
Sea Level Pressure  
Sea Level Pressure 29.73 in    
Wind  
Wind Speed 8 mph ()    
Max Wind Speed 22 mph    
Max Gust Speed 29 mph    
T = Trace of Precipitation, MM = Missing Value Source: Averaged Metar Reports

Daily Weather History Graph

Daily Weather History Graph

Search for Another Location

Airport or City:

Trip Planner

Search our weather history database for the weather conditions in past years. The results will help you decide how hot, cold, wet, or windy it might be!

Date:

Astronomy

Jan. 09, 2014 Rise Set
Actual Time 12:05 PM PST 2:47 PM PST
Civil Twilight 10:19 AM PST 4:34 PM PST
Nautical Twilight 8:59 AM PST 5:54 PM PST
Astronomical Twilight 7:51 AM PST 7:02 PM PST
Moon 12:00 PM PST (1/9) 4:34 AM PST (1/9)
Length of Visible Light 6h 14m
Length of Day
2h 41m
Waxing Gibbous, 67% of the Moon is Illuminated
Jan 9
Waxing Gibbous
Jan 15
Full
Jan 23
Last Quarter
Jan 30
New
Feb 6
First Quarter

Hourly Weather History & Observations

Time (PST) Temp. Windchill Dew Point Humidity Pressure Visibility Wind Dir Wind Speed Gust Speed Precip Events Conditions
12:00 AM -15.9 °F -34.8 °F -22.0 °F 74% 29.72 in - East 9.2 mph - N/A   Unknown
1:00 AM -16.6 °F -31.3 °F -22.4 °F 75% 29.73 in - East 5.8 mph - N/A   Unknown
2:00 AM -17.9 °F -28.2 °F -23.6 °F 75% 29.73 in - East 3.5 mph - N/A   Unknown
3:00 AM -20.0 °F -30.7 °F -25.8 °F 75% 29.73 in - East 3.5 mph - N/A   Unknown
4:00 AM -19 °F - -25 °F 58% 29.73 in - East 5.8 mph - -  
4:00 AM -19.3 °F -32.4 °F -25.4 °F 73% 29.73 in - East 4.6 mph - N/A   Unknown
5:00 AM -19.1 °F -32.2 °F -25.4 °F 73% 29.72 in - East 4.6 mph - N/A   Unknown
6:00 AM -8.0 °F -23.9 °F -17.0 °F 65% 29.70 in - NE 8.1 mph - N/A   Unknown
7:00 AM -7.8 °F -28.6 °F -17.5 °F 63% 29.69 in - NNE 13.8 mph 20.7 mph N/A   Unknown
8:00 AM -9.2 °F -31.9 °F -18.4 °F 64% 29.70 in - NNE 16.1 mph - N/A   Unknown
9:00 AM -10.3 °F -34.6 °F -18.9 °F 66% 29.70 in - NNE 18.4 mph 24.2 mph N/A   Unknown
10:00 AM -11 °F - -19 °F 52% 29.70 in - NNE 21.9 mph - -  
10:00 AM -10.8 °F -37.1 °F -19.1 °F 67% 29.70 in - NNE 21.9 mph 28.8 mph N/A   Unknown
11:00 AM -11.4 °F -34.7 °F -19.5 °F 67% 29.72 in - NNE 16.1 mph 25.3 mph N/A   Unknown
1:00 PM -10.7 °F -35.7 °F -18.6 °F 68% 29.73 in - NNE 19.6 mph 26.5 mph N/A   Unknown
2:00 PM -10.1 °F -34.4 °F -17.5 °F 70% 29.74 in - NE 18.4 mph 25.3 mph N/A   Unknown
4:00 PM -18.9 °F -32.0 °F -29.6 °F 58% 29.75 in - West 4.6 mph - N/A   Unknown
5:00 PM -27.9 °F -39.8 °F -34.6 °F 71% 29.76 in - West 3.5 mph - N/A   Unknown
6:00 PM -29.2 °F - -35.9 °F 70% 29.75 in - West 2.3 mph - N/A   Unknown
7:00 PM -31.4 °F - -38.4 °F 69% 29.75 in - WSW 1.2 mph - N/A   Unknown
10:00 PM -38 °F - -46 °F 45% 29.75 in - ENE 1.2 mph - -